Torna al catalogo

COSMOS 1324

AttivoNavigazioneLEO
NORAD 12979·PAYLOAD·🇷🇺 Russia

Lanciato Nov 28, 1981 da Plesetsk Cosmodrome

Loading…

Prossimi Passaggi (prossime 24 ore)

TLE

AggiornatoSource: Space-Track

Epoca: Sep 14, 2026, 08:20 UTC

1 12979U 81116E   26257.34763759 -.00000023  00000-0 -69625-4 0  9990
2 12979  73.9789 239.2143 0086713  74.1112  88.2464 12.29741115 10891

Traccia COSMOS 1324 in tempo reale con AllMySat

Download on the App Store